| time (UTC) | temp C | wind direction | speed KPH | gust KPH | rain 1hr cm | rain 24hr cm | rain mn cm | humidity % | barometer mb |
| 20260502195552 | 25 | 140 | 9.7 | 0.0 | 0.00 | 0.00 | 0.00 | 38 | 1013.0 |
| 20260502194551 | 25 | 360 | 12.9 | 0.0 | 0.00 | 0.00 | 0.00 | 46 | 1013.0 |
| 20260502193550 | 25 | 360 | 12.9 | 0.0 | 0.00 | 0.00 | 0.00 | 46 | 1013.0 |
| 20260502192550 | 25 | 360 | 12.9 | 0.0 | 0.00 | 0.00 | 0.00 | 45 | 1014.0 |
| 20260502191549 | 25 | 360 | 12.9 | 0.0 | 0.00 | 0.00 | 0.00 | 43 | 1014.0 |
| 20260502190548 | 25 | 360 | 12.9 | 0.0 | 0.00 | 0.00 | 0.00 | 39 | 1014.0 |
| 20260502185548 | 25 | 360 | 14.5 | 0.0 | 0.00 | 0.00 | 0.00 | 41 | 1014.0 |
| 20260502184547 | 25 | 360 | 14.5 | 0.0 | 0.00 | 0.00 | 0.00 | 41 | 1014.0 |
| 20260502183547 | 25 | 360 | 14.5 | 0.0 | 0.00 | 0.00 | 0.00 | 42 | 1014.0 |
| 20260502182546 | 24 | 360 | 14.5 | 0.0 | 0.00 | 0.00 | 0.00 | 44 | 1015.0 |
| 20260502181545 | 23 | 360 | 14.5 | 0.0 | 0.00 | 0.00 | 0.00 | 49 | 1015.0 |
| 20260502180545 | 22 | 360 | 14.5 | 0.0 | 0.00 | 0.00 | 0.00 | 51 | 1015.0 |
| 20260502163539 | 19 | 0 | 0.0 | 0.0 | 0.00 | 0.00 | 0.00 | 58 | 1016.0 |
| 20260502162538 | 19 | 0 | 0.0 | 0.0 | 0.00 | 0.00 | 0.00 | 58 | 1016.0 |
| 20260502161538 | 18 | 0 | 0.0 | 0.0 | 0.00 | 0.00 | 0.00 | 59 | 1016.0 |
| 20260502160536 | 17 | 0 | 0.0 | 0.0 | 0.00 | 0.00 | 0.00 | 61 | 1016.0 |
| 20260502151533 | 17 | 0 | 0.0 | 0.0 | 0.00 | 0.00 | 0.00 | 67 | 1016.0 |
| 20260502150532 | 15 | 0 | 0.0 | 0.0 | 0.00 | 0.00 | 0.00 | 63 | 1016.0 |
| 20260502130525 | 8 | 0 | 0.0 | 0.0 | 0.00 | 0.00 | 0.00 | 96 | 1017.0 |
| 20260502123522 | 9 | 21 | 1.6 | 6.4 | 0.00 | 0.00 | 0.00 | 96 | 1017.0 |
| 20260502122521 | 9 | 21 | 1.6 | 6.4 | 0.00 | 0.00 | 0.00 | 95 | 1017.0 |
| 20260502121521 | 9 | 21 | 1.6 | 6.4 | 0.00 | 0.00 | 0.00 | 93 | 1017.0 |
| 20260502120520 | 10 | 21 | 1.6 | 6.4 | 0.00 | 0.00 | 0.00 | 90 | 1017.0 |
| 20260502115519 | 10 | 21 | 1.6 | 6.4 | 0.00 | 0.00 | 0.00 | 90 | 1017.0 |
| 20260502114519 | 10 | 21 | 1.6 | 6.4 | 0.00 | 0.00 | 0.00 | 90 | 1017.0 |
| 20260502113518 | 10 | 21 | 1.6 | 6.4 | 0.00 | 0.00 | 0.00 | 90 | 1017.0 |
| 20260502112517 | 10 | 21 | 3.2 | 6.4 | 0.00 | 0.00 | 0.00 | 90 | 1016.0 |
| 20260502111517 | 11 | 30 | 1.6 | 1.6 | 0.00 | 0.00 | 0.00 | 88 | 1016.0 |
| 20260502110516 | 11 | 30 | 1.6 | 1.6 | 0.00 | 0.00 | 0.00 | 88 | 1016.0 |
| 20260502105516 | 11 | 30 | 1.6 | 1.6 | 0.00 | 0.00 | 0.00 | 88 | 1016.0 |
| 20260502104515 | 11 | 30 | 1.6 | 1.6 | 0.00 | 0.00 | 0.00 | 88 | 1016.0 |
| 20260502103514 | 11 | 30 | 1.6 | 1.6 | 0.00 | 0.00 | 0.00 | 89 | 1016.0 |
| 20260502102514 | 11 | 30 | 1.6 | 1.6 | 0.00 | 0.00 | 0.00 | 90 | 1016.0 |
| 20260502101513 | 11 | 30 | 1.6 | 1.6 | 0.00 | 0.00 | 0.00 | 90 | 1016.0 |
| 20260502100512 | 11 | 30 | 1.6 | 1.6 | 0.00 | 0.00 | 0.00 | 90 | 1016.0 |
| 20260502091510 | 11 | 30 | 1.6 | 1.6 | 0.00 | 0.00 | 0.00 | 89 | 1016.0 |
| 20260502090509 | 11 | 30 | 1.6 | 1.6 | 0.00 | 0.00 | 0.00 | 89 | 1016.0 |
| 20260502071502 | 12 | 30 | 1.6 | 1.6 | 0.00 | 0.00 | 0.00 | 93 | 1017.0 |
| 20260502070501 | 12 | 30 | 1.6 | 1.6 | 0.00 | 0.00 | 0.00 | 93 | 1017.0 |
| 20260502065500 | 12 | 30 | 1.6 | 1.6 | 0.00 | 0.00 | 0.00 | 93 | 1017.0 |
| 20260502064500 | 12 | 30 | 1.6 | 1.6 | 0.00 | 0.00 | 0.00 | 93 | 1017.0 |
| 20260502063459 | 12 | 30 | 1.6 | 1.6 | 0.00 | 0.00 | 0.00 | 93 | 1017.0 |
| 20260502062459 | 12 | 30 | 1.6 | 1.6 | 0.00 | 0.00 | 0.00 | 93 | 1017.0 |
| 20260502061458 | 12 | 30 | 1.6 | 1.6 | 0.00 | 0.00 | 0.00 | 93 | 1017.0 |
| 20260502060457 | 12 | 30 | 1.6 | 1.6 | 0.00 | 0.00 | 0.00 | 92 | 1017.0 |
| 20260502055457 | 12 | 30 | 1.6 | 1.6 | 0.00 | 0.00 | 0.00 | 92 | 1017.0 |
| 20260502054456 | 12 | 30 | 1.6 | 1.6 | 0.00 | 0.00 | 0.00 | 92 | 1017.0 |
| 20260502053455 | 12 | 30 | 1.6 | 1.6 | 0.00 | 0.00 | 0.00 | 92 | 1017.0 |
| 20260502052455 | 12 | 30 | 1.6 | 1.6 | 0.00 | 0.00 | 0.00 | 92 | 1017.0 |
| 20260502051454 | 12 | 30 | 1.6 | 1.6 | 0.00 | 0.00 | 0.00 | 92 | 1017.0 |
| 20260502050453 | 12 | 30 | 1.6 | 1.6 | 0.00 | 0.00 | 0.00 | 92 | 1017.0 |
| 20260502045453 | 12 | 30 | 1.6 | 1.6 | 0.00 | 0.00 | 0.00 | 92 | 1017.0 |
| 20260502044452 | 13 | 30 | 1.6 | 1.6 | 0.00 | 0.00 | 0.00 | 92 | 1017.0 |
| 20260502043452 | 13 | 30 | 1.6 | 1.6 | 0.00 | 0.00 | 0.00 | 92 | 1017.0 |
| 20260502042451 | 13 | 30 | 1.6 | 1.6 | 0.00 | 0.00 | 0.00 | 92 | 1017.0 |
| 20260502041450 | 13 | 30 | 1.6 | 1.6 | 0.00 | 0.00 | 0.00 | 92 | 1017.0 |
| 20260502040450 | 13 | 30 | 1.6 | 1.6 | 0.00 | 0.00 | 0.00 | 92 | 1017.0 |
| 20260502035449 | 13 | 30 | 1.6 | 1.6 | 0.00 | 0.00 | 0.00 | 92 | 1017.0 |
| 20260502034448 | 13 | 30 | 1.6 | 1.6 | 0.00 | 0.00 | 0.00 | 91 | 1017.0 |
| 20260502033448 | 13 | 30 | 1.6 | 1.6 | 0.00 | 0.00 | 0.00 | 91 | 1017.0 |
| 20260502032447 | 13 | 30 | 1.6 | 1.6 | 0.00 | 0.00 | 0.00 | 91 | 1016.0 |
| 20260502031446 | 14 | 30 | 1.6 | 1.6 | 0.00 | 0.00 | 0.00 | 91 | 1016.0 |
| 20260502030446 | 14 | 30 | 1.6 | 1.6 | 0.00 | 0.00 | 0.00 | 91 | 1016.0 |
| 20260502025445 | 14 | 30 | 1.6 | 1.6 | 0.00 | 0.00 | 0.00 | 91 | 1016.0 |
| 20260502024445 | 14 | 30 | 1.6 | 1.6 | 0.00 | 0.00 | 0.00 | 91 | 1016.0 |
| 20260502023444 | 15 | 30 | 1.6 | 1.6 | 0.00 | 0.00 | 0.00 | 91 | 1016.0 |
| 20260502022443 | 15 | 30 | 1.6 | 1.6 | 0.00 | 0.00 | 0.00 | 91 | 1015.0 |
| 20260502021443 | 15 | 30 | 1.6 | 1.6 | 0.00 | 0.00 | 0.00 | 90 | 1015.0 |
| 20260502020442 | 15 | 30 | 1.6 | 1.6 | 0.00 | 0.00 | 0.00 | 90 | 1015.0 |
| 20260502015442 | 15 | 30 | 1.6 | 1.6 | 0.00 | 0.00 | 0.00 | 90 | 1015.0 |
| 20260502014441 | 15 | 30 | 1.6 | 1.6 | 0.00 | 0.00 | 0.00 | 90 | 1015.0 |
| 20260502013440 | 15 | 30 | 1.6 | 1.6 | 0.00 | 0.00 | 0.00 | 90 | 1015.0 |
| 20260502012440 | 15 | 124 | 0.0 | 0.0 | 0.00 | 0.00 | 0.00 | 90 | 1014.0 |
| 20260502011439 | 15 | 124 | 0.0 | 0.0 | 0.00 | 0.00 | 0.00 | 90 | 1014.0 |
| 20260502010439 | 15 | 124 | 0.0 | 0.0 | 0.00 | 0.00 | 0.00 | 89 | 1014.0 |
| 20260502005438 | 15 | 124 | 0.0 | 0.0 | 0.00 | 0.00 | 0.00 | 92 | 1014.0 |
| 20260502004437 | 15 | 124 | 0.0 | 0.0 | 0.00 | 0.00 | 0.00 | 94 | 1014.0 |
| 20260502003437 | 18 | 0 | 0.0 | 0.0 | 0.00 | 0.00 | 0.00 | 76 | 1014.0 |
| 20260502002436 | 17 | 185 | 1.6 | 0.0 | 0.00 | 0.00 | 0.00 | 77 | 1013.0 |
| 20260502001436 | 17 | 185 | 1.6 | 0.0 | 0.00 | 0.00 | 0.00 | 82 | 1013.0 |
| 20260502000435 | 15 | 185 | 1.6 | 0.0 | 0.00 | 0.00 | 0.00 | 89 | 1013.0 |
| 20260501235435 | 15 | 185 | 1.6 | 0.0 | 0.00 | 0.00 | 0.00 | 90 | 1013.0 |
| 20260501234434 | 15 | 185 | 3.2 | 0.0 | 0.00 | 0.00 | 0.00 | 93 | 1013.0 |
| 20260501233433 | 19 | 140 | 9.7 | 0.0 | 0.00 | 0.00 | 0.00 | 73 | 1013.0 |
| 20260501232433 | 20 | 140 | 9.7 | 0.0 | 0.00 | 0.00 | 0.00 | 69 | 1013.0 |
| 20260501231432 | 20 | 140 | 9.7 | 0.0 | 0.00 | 0.00 | 0.00 | 69 | 1013.0 |
| 20260501230432 | 18 | 140 | 9.7 | 0.0 | 0.00 | 0.00 | 0.00 | 78 | 1013.0 |
| 20260501225431 | 17 | 206 | 8.0 | 8.0 | 0.00 | 0.00 | 0.00 | 87 | 1013.0 |
| 20260501224431 | 17 | 206 | 8.0 | 8.0 | 0.00 | 0.00 | 0.00 | 90 | 1013.0 |
| 20260501223430 | 17 | 206 | 8.0 | 8.0 | 0.00 | 0.00 | 0.00 | 89 | 1013.0 |
| 20260501222429 | 17 | 206 | 8.0 | 8.0 | 0.00 | 0.00 | 0.00 | 88 | 1012.0 |
| 20260501221429 | 17 | 206 | 8.0 | 8.0 | 0.00 | 0.00 | 0.00 | 86 | 1013.0 |
| 20260501220428 | 17 | 206 | 8.0 | 8.0 | 0.00 | 0.00 | 0.00 | 84 | 1013.0 |
| 20260501215427 | 17 | 206 | 8.0 | 8.0 | 0.00 | 0.00 | 0.00 | 84 | 1013.0 |
| 20260501214427 | 17 | 206 | 8.0 | 8.0 | 0.00 | 0.00 | 0.00 | 84 | 1013.0 |
| 20260501213426 | 17 | 206 | 8.0 | 8.0 | 0.00 | 0.00 | 0.00 | 84 | 1013.0 |
| 20260501212426 | 17 | 206 | 8.0 | 8.0 | 0.00 | 0.00 | 0.00 | 84 | 1013.0 |
| 20260501211425 | 17 | 206 | 8.0 | 8.0 | 0.00 | 0.00 | 0.00 | 84 | 1013.0 |
| 20260501210425 | 17 | 206 | 8.0 | 8.0 | 0.00 | 0.00 | 0.00 | 84 | 1013.0 |
| 20260501205424 | 17 | 206 | 8.0 | 8.0 | 0.00 | 0.00 | 0.00 | 84 | 1013.0 |
| 20260501204423 | 17 | 206 | 8.0 | 8.0 | 0.00 | 0.00 | 0.00 | 84 | 1013.0 |
| 20260501203423 | 17 | 206 | 8.0 | 8.0 | 0.00 | 0.00 | 0.00 | 84 | 1013.0 |
| 20260501202422 | 17 | 206 | 8.0 | 8.0 | 0.00 | 0.00 | 0.00 | 84 | 1013.0 |
| 20260501201422 | 17 | 206 | 9.7 | 8.0 | 0.00 | 0.00 | 0.00 | 84 | 1013.0 |